Location: Winthrop
(48.4780°N, 120.1850°W)
Time: 16:20:25
(UTC-07:00)

Vanguard 3 - Visible Passes

Search period start: 30 May 2024 00:00
Search period end: 09 June 2024 00:00
Orbit: 509 x 3232 km, 33.3° (Epoch: 30 May)

Date Brightness Start Highest point End Pass type
(mag) Time Alt. Az. Time Alt. Az. Time Alt. Az.
30 May 10.8 00:43:46 10° SW 00:48:03 12° SW 00:48:29 12° SW visible
30 May 10.5 23:22:15 10° WSW 23:29:16 17° SSW 23:34:13 15° S visible
31 May 10.1 22:03:35 10° WSW 22:10:37 22° SSW 22:20:02 11° SSE visible
01 Jun 10.5 22:59:16 10° SW 23:04:22 14° SSW 23:10:04 10° S visible
02 Jun 10.1 21:40:14 10° WSW 21:45:55 18° SSW 21:53:30 10° SSE visible
03 Jun 10.6 22:37:58 10° SW 22:39:36 10° SSW 22:41:19 10° SSW visible
